Retour au catalogue

STARLINK-4047

ActifCommunicationsVLEO
NORAD 53243·PAYLOAD·🇺🇸 United States

Lancé Jul 24, 2022 depuis Cape Canaveral Space Force Station

Loading…

Prochains Passages (prochaines 24 heures)

TLE

FraisSource: CelesTrak SupGP

Époque: Sep 15, 2026, 02:38 UTC

1 53243C 22086B   26258.11020833 -.00033434  00000+0 -95579-3 0  2580
2 53243  53.1597  61.5282 0001314  73.9085 269.7133 15.35440543    10

Suivez STARLINK-4047 en temps réel avec AllMySat

Download on the App Store